Weather History for KPQL - October, 2011

Change the Weather History Date:

Monday, October 24, 2011

  Actual Average Record
Temperature  
Mean Temperature 66 °F -  
Max Temperature 80 °F 77 °F 92 °F (1963)
Min Temperature 53 °F 58 °F 36 °F (1999)
Cooling Degree Days 1    
Growing Degree Days 16 (Base 50)    
Moisture  
Dew Point 55 °F    
Average Humidity 72    
Maximum Humidity 93    
Minimum Humidity 42    
Precipitation  
Precipitation 0.00 in - - ()
Sea Level Pressure  
Sea Level Pressure 30.14 in    
Wind  
Wind Speed 2 mph (North)    
Max Wind Speed 10 mph    
Max Gust Speed -    
Visibility 10 miles    
Events      
Averages and records for this station are not official NWS values.
T = Trace of Precipitation, MM = Missing Value Source: NWS Daily Summary

Daily Weather History Graph

Daily Weather History Graph

Search for Another Location

Airport or City:

Trip Planner

Search our weather history database for the weather conditions in past years. The results will help you decide how hot, cold, wet, or windy it might be!

Date:

Astronomy

Oct. 24, 2011 Rise Set
Actual Time 7:02 AM CDT 6:13 PM CDT
Civil Twilight 6:37 AM CDT 6:38 PM CDT
Nautical Twilight 6:09 AM CDT 7:06 PM CDT
Astronomical Twilight 5:41 AM CDT 7:34 PM CDT
Moon 4:29 AM CDT (10/24) 4:32 PM CDT (10/24)
Length of Visible Light 12h 00m
Length of Day
11h 11m
Waning Crescent, 7% of the Moon is Illuminated
Oct 24
Waning Crescent
Oct 26
New
Nov 2
First Quarter
Nov 10
Full
Nov 18
Last Quarter

Hourly Weather History & Observations

Time (CDT) Temp. Dew Point Humidity Pressure Visibility Wind Dir Wind Speed Gust Speed Precip Events Conditions
12:53 AM 57.9 °F 53.1 °F 84% 30.12 in 10.0 mi Calm Calm - N/A   Overcast
1:53 AM 55.0 °F 51.1 °F 86% 30.11 in 10.0 mi Calm Calm - N/A   Mostly Cloudy
2:53 AM 53.1 °F 51.1 °F 93% 30.10 in 10.0 mi Calm Calm - N/A   Clear
3:53 AM 53.1 °F 51.1 °F 93% 30.10 in 10.0 mi Calm Calm - N/A   Mostly Cloudy
4:53 AM 55.0 °F 53.1 °F 93% 30.11 in 10.0 mi Calm Calm - N/A   Overcast
5:45 AM 57.2 °F 53.6 °F 88% 30.11 in 10.0 mi Calm Calm - N/A   Overcast
5:53 AM 57.0 °F 54.0 °F 89% 30.12 in 10.0 mi Calm Calm - N/A   Overcast
6:30 AM 59.0 °F 55.4 °F 88% 30.12 in 10.0 mi Calm Calm - N/A   Overcast
6:53 AM 61.0 °F 55.9 °F 83% 30.13 in 10.0 mi Calm Calm - N/A   Overcast
7:53 AM 62.1 °F 57.0 °F 84% 30.16 in 10.0 mi Calm Calm - N/A   Mostly Cloudy
8:53 AM 68.0 °F 57.9 °F 70% 30.17 in 10.0 mi Variable 3.5 mph - N/A   Mostly Cloudy
9:53 AM 73.0 °F 59.0 °F 61% 30.17 in 10.0 mi Variable 5.8 mph - N/A   Clear
10:53 AM 75.0 °F 59.0 °F 57% 30.17 in 10.0 mi North 8.1 mph - N/A   Clear
11:53 AM 77.0 °F 57.9 °F 52% 30.16 in 10.0 mi North 10.4 mph - N/A   Partly Cloudy
12:53 PM 78.1 °F 57.9 °F 50% 30.14 in 10.0 mi NNW 8.1 mph - N/A   Partly Cloudy
1:53 PM 79.0 °F 57.0 °F 47% 30.13 in 10.0 mi North 6.9 mph - N/A   Clear
2:53 PM 79.0 °F 54.0 °F 42% 30.12 in 10.0 mi North 10.4 mph - N/A   Clear
3:53 PM 77.0 °F 54.0 °F 45% 30.12 in 10.0 mi NW 4.6 mph - N/A   Clear
4:53 PM 75.9 °F 55.9 °F 50% 30.12 in 10.0 mi North 6.9 mph - N/A   Clear
5:53 PM 71.1 °F 55.9 °F 59% 30.13 in 10.0 mi North 3.5 mph - N/A   Clear
6:53 PM 66.0 °F 55.9 °F 70% 30.15 in 10.0 mi NNW 3.5 mph - N/A   Clear
7:53 PM 61.0 °F 55.0 °F 81% 30.17 in 10.0 mi NNW 4.6 mph - N/A   Clear
8:53 PM 60.1 °F 54.0 °F 80% 30.19 in 10.0 mi Calm Calm - N/A   Clear
11:53 PM 55.9 °F 54.0 °F 93% 30.21 in 10.0 mi Calm Calm - N/A   Clear